Weather History for Rawlins, WY

Change the Weather History Date:

Tuesday, July 23, 2013

  Actual Average Record
Temperature  
Mean Temperature 69 °F 68 °F  
Max Temperature 90 °F 85 °F 96 °F (2003)
Min Temperature 48 °F 51 °F 42 °F (1954)
Degree Days  
Heating Degree Days 0 1  
Month to date heating degree days 0 30  
Since 1 June heating degree days 101 220  
Since 1 July heating degree days 0 30  
Cooling Degree Days 4 4  
Month to date cooling degree days 126 70  
Year to date cooling degree days 174 89  
Since 1 June cooling degree days 173 89  
Growing Degree Days 20 (Base 50)    
Moisture  
Dew Point 18 °F    
Average Humidity 27    
Maximum Humidity 49    
Minimum Humidity 5    
Precipitation  
Precipitation 0.00 in 0.03 in 0.57 in (1989)
Month to date precipitation 0.68 0.60  
Year to date precipitation 2.78 5.55  
Sea Level Pressure  
Sea Level Pressure 29.92 in    
Wind  
Wind Speed 8 mph (NNW)    
Max Wind Speed 20 mph    
Max Gust Speed 38 mph    
Visibility 10 miles    
Events      
T = Trace of Precipitation, MM = Missing Value Source: NWS Daily Summary

Daily Weather History Graph

Daily Weather History Graph

Search for Another Location

Airport:

Trip Planner

Search our weather history database for the weather conditions in past years. The results will help you decide how hot, cold, wet, or windy it might be!

Date:

Astronomy

Jul. 23, 2013 Rise Set
Actual Time 5:54 AM MDT 8:35 PM MDT
Civil Twilight 5:22 AM MDT 9:07 PM MDT
Nautical Twilight 4:41 AM MDT 9:48 PM MDT
Astronomical Twilight 3:55 AM MDT 10:34 PM MDT
Moon 9:03 PM MDT (7/23) 7:08 AM MDT (7/23)
Length of Visible Light 15h 45m
Length of Day
14h 41m
Full, 99% of the Moon is Illuminated
Jul 23
Full
Jul 29
Last Quarter
Aug 6
New
Aug 14
First Quarter
Aug 20
Full

Hourly Weather History & Observations

Time (MDT) Temp. Dew Point Humidity Pressure Visibility Wind Dir Wind Speed Gust Speed Precip Events Conditions
12:53 AM 64.9 °F 7.0 °F 10% 29.83 in 10.0 mi WNW 10.4 mph - N/A   Clear
1:53 AM 61.0 °F 8.1 °F 12% 29.83 in 10.0 mi WNW 12.7 mph - N/A   Clear
2:53 AM 55.9 °F 8.1 °F 15% 29.84 in 10.0 mi Calm Calm - N/A   Clear
3:53 AM 55.0 °F 8.1 °F 15% 29.87 in 10.0 mi Calm Calm - N/A   Clear
4:53 AM 51.1 °F 10.0 °F 19% 29.88 in 10.0 mi NNW 8.1 mph - N/A   Clear
5:53 AM 50.0 °F 10.0 °F 20% 29.91 in 10.0 mi Calm Calm - N/A   Clear
6:53 AM 57.0 °F 12.9 °F 18% 29.91 in 10.0 mi Calm Calm - N/A   Clear
7:53 AM 64.0 °F 10.9 °F 13% 29.91 in 10.0 mi Calm Calm - N/A   Clear
8:53 AM 73.0 °F 10.9 °F 9% 29.91 in 10.0 mi WSW 9.2 mph - N/A   Clear
9:53 AM 77.0 °F 10.0 °F 8% 29.91 in 10.0 mi WSW 10.4 mph - N/A   Clear
10:53 AM - - N/A% 30.24 in 10.0 mi North - - N/A   Clear
11:53 AM 84.0 °F 10.9 °F 6% 29.90 in 10.0 mi West 13.8 mph 18.4 mph N/A   Clear
12:53 PM 86.0 °F 10.0 °F 6% 29.89 in 10.0 mi West 12.7 mph 21.9 mph N/A   Clear
1:53 PM 87.1 °F 9.0 °F 5% 29.90 in 10.0 mi NW 9.2 mph 19.6 mph N/A   Clear
2:53 PM 90.0 °F 10.0 °F 5% 29.90 in 10.0 mi NNW 12.7 mph 18.4 mph N/A   Clear
3:53 PM 89.1 °F 14.0 °F 6% 29.89 in 10.0 mi WNW 10.4 mph 17.3 mph N/A   Clear
4:53 PM 88.0 °F 18.0 °F 8% 29.90 in 10.0 mi Calm Calm - N/A   Clear
5:53 PM 88.0 °F 21.9 °F 9% 29.89 in 10.0 mi North 9.2 mph - N/A   Clear
6:53 PM 87.1 °F 19.0 °F 8% 29.88 in 10.0 mi ENE 8.1 mph - N/A   Clear
7:53 PM 81.0 °F 26.1 °F 13% 29.88 in 10.0 mi NE 13.8 mph - N/A   Clear
8:53 PM 77.0 °F 30.0 °F 18% 29.88 in 10.0 mi NE 11.5 mph - N/A   Clear
9:53 PM 73.9 °F 44.1 °F 34% 29.91 in 10.0 mi ENE 9.2 mph - N/A   Clear
10:53 PM 71.1 °F 48.0 °F 44% 30.25 in 10.0 mi ENE 11.5 mph - N/A   Clear
11:53 PM 68.0 °F 48.0 °F 49% 29.91 in 10.0 mi ENE 11.5 mph - N/A   Clear